FW4469 Weather Reports


Display with metric or nautical units.
time (UTC)temp
F
wind
direction
speed
MPH
gust
MPH
rain 1hr
in
rain 24hr
in
rain mn
in
humidity
%
barometer
mb
20260505051008 45 348 5.0 11.0 0.00 0.00 0.00 74 1014.8
20260505041008 46 344 4.0 8.0 0.00 0.00 0.00 76 1014.7
20260505040008 46 342 4.0 10.0 0.00 0.00 0.00 78 1014.5
20260505035216 45 342 4.0 10.0 0.00 0.00 0.00 79 1014.5
20260505034008 45 336 4.0 8.0 0.00 0.00 0.00 80 1014.5
20260505033008 45 349 3.0 8.0 0.00 0.00 0.00 80 1014.8
20260505032218 45 340 2.0 5.0 0.00 0.00 0.00 80 1014.6
20260505031008 45 322 3.0 7.0 0.00 0.00 0.00 80 1015.0
20260505030008 45 329 2.0 6.0 0.00 0.00 0.00 81 1014.8
20260505025003 44 340 2.0 4.0 0.00 0.00 0.00 81 1014.9
20260505024003 44 343 1.0 3.0 0.00 0.00 0.00 82 1015.0
20260505023008 44 335 2.0 4.0 0.00 0.00 0.00 82 1015.1
20260505022003 45 345 1.0 3.0 0.00 0.00 0.00 82 1015.0
20260505021003 45 341 1.0 4.0 0.00 0.00 0.00 82 1015.2
20260505020008 45 333 2.0 5.0 0.00 0.00 0.00 82 1015.5
20260505015003 45 329 3.0 6.0 0.00 0.00 0.00 83 1015.3
20260505014008 44 334 3.0 7.0 0.00 0.00 0.00 82 1015.1
20260505013008 44 329 3.0 6.0 0.00 0.00 0.00 82 1015.3
20260505012003 44 331 3.0 8.0 0.00 0.00 0.00 79 1015.5
20260505011003 44 332 3.0 5.0 0.00 0.00 0.00 76 1015.6
20260505010008 45 341 3.0 6.0 0.00 0.00 0.00 74 1015.6
20260505005004 45 339 4.0 6.0 0.00 0.00 0.00 76 1015.7
20260505004008 45 341 4.0 6.0 0.00 0.00 0.00 78 1015.9
20260505003003 45 336 3.0 6.0 0.00 0.00 0.00 82 1015.8
20260505002003 45 337 4.0 6.0 0.00 0.00 0.00 82 1015.8
20260505001003 46 336 3.0 6.0 0.00 0.00 0.00 83 1015.9
20260505000008 46 341 4.0 10.0 0.00 0.00 0.00 82 1016.0
20260504235223 46 338 4.0 7.0 0.00 0.00 0.00 83 1016.2
20260504234223 46 335 4.0 7.0 0.00 0.00 0.00 83 1016.1
20260504233223 46 339 4.0 6.0 0.00 0.00 0.00 84 1016.0
20260504232217 46 340 4.0 7.0 0.00 0.00 0.00 85 1016.1
20260504231008 46 340 4.0 7.0 0.00 0.00 0.00 85 1016.0
20260504230003 46 344 4.0 7.0 0.00 0.00 0.00 88 1016.2
20260504225003 46 343 4.0 6.0 0.00 0.00 0.00 92 1016.2
20260504224008 46 343 4.0 8.0 0.00 0.00 0.00 92 1016.2
20260504223222 46 339 3.0 7.0 0.00 0.00 0.00 94 1016.3
20260504222008 46 337 3.0 6.0 0.00 0.00 0.00 96 1016.2
20260504221003 46 336 3.0 6.0 0.00 0.00 0.00 97 1016.3
20260504220008 46 337 3.0 7.0 0.00 0.00 0.00 97 1016.4
20260504215008 46 343 4.0 7.0 0.00 0.00 0.00 98 1016.6
20260504214003 46 341 4.0 8.0 0.00 0.00 0.00 97 1016.5
20260504213222 45 340 3.0 5.0 0.00 0.00 0.00 96 1016.6
20260504212008 45 338 2.0 4.0 0.00 0.00 0.00 95 1016.6
20260504211008 45 340 2.0 3.0 0.00 0.00 0.00 94 1016.3
20260504210008 45 344 2.0 3.0 0.00 0.00 0.00 94 1016.3
20260504205013 46 342 2.0 3.0 0.00 0.00 0.00 93 1016.5
20260504204008 46 332 3.0 5.0 0.00 0.00 0.00 93 1016.1
20260504203003 46 335 2.0 4.0 0.00 0.00 0.00 92 1016.2
20260504202008 47 331 3.0 4.0 0.00 0.00 0.00 91 1016.0
20260504201003 47 331 2.0 5.0 0.00 0.00 0.00 90 1016.0
20260504200229 48 323 3.0 4.0 0.00 0.00 0.00 90 1015.8
20260504195013 49 320 3.0 5.0 0.00 0.00 0.00 88 1016.0
20260504194008 49 328 3.0 5.0 0.00 0.00 0.00 86 1015.7
20260504193009 50 326 3.0 5.0 0.00 0.00 0.00 84 1015.7
20260504192013 51 325 3.0 5.0 0.00 0.00 0.00 82 1015.8
20260504191004 51 317 3.0 5.0 0.00 0.00 0.00 82 1015.6
20260504190217 52 320 4.0 7.0 0.00 0.00 0.00 80 1015.8
20260504185008 54 321 5.0 7.0 0.00 0.00 0.00 76 1015.7
20260504184008 55 322 4.0 7.0 0.00 0.00 0.00 75 1015.5
20260504183009 55 318 4.0 8.0 0.00 0.00 0.00 74 1015.3
20260504182004 56 315 5.0 9.0 0.00 0.00 0.00 73 1015.6
20260504181004 57 317 5.0 8.0 0.00 0.00 0.00 71 1015.2
20260504180008 57 313 5.0 8.0 0.00 0.00 0.00 72 1015.3
20260504175223 57 316 4.0 8.0 0.00 0.00 0.00 71 1015.2
20260504174008 57 319 4.0 8.0 0.00 0.00 0.00 74 1015.1
20260504173008 54 320 4.0 7.0 0.00 0.00 0.00 79 1015.3
20260504172008 55 318 5.0 9.0 0.00 0.00 0.00 76 1015.3
20260504171003 57 320 5.0 8.0 0.00 0.00 0.00 76 1015.1
20260504170222 56 323 5.0 8.0 0.00 0.00 0.00 79 1015.3
20260504141008 59 318 5.0 8.0 0.00 0.00 0.00 70 1015.8
20260504140217 58 314 4.0 7.0 0.00 0.00 0.00 70 1015.8
20260504110222 51 321 4.0 7.0 0.00 0.00 0.00 88 1016.0
20260504082008 49 326 3.0 6.0 0.00 0.00 0.00 94 1015.2
20260504081003 48 308 3.0 6.0 0.00 0.00 0.00 96 1015.0